QPF
0.00 0.00 0.00 0.00 0.00 0.00 0.00 0.00 0.00 0.00 0.00 0.00 0.00 0.00 0.00 0.01 0.01 0.08 0.02 0.00 0.00 0.00 0.00 0.00 0.00 0.00 0.00 0.01 0.02 0.03 0.04 0.04 0.04 0.04 0.05 0.05 0.04 0.04 0.03 0.02 0.02 0.02 0.02 0.02 0.02 0.02 0.01 0.01 0.00
0.00 0.00 0.00 0.00 0.00 0.00 0.00 0.00 0.00 0.00 0.00 0.00 0.00 0.00 0.00 0.00 0.00 0.00 0.00 0.00 0.00 0.00 0.00 0.00 0.00 0.00 0.00 0.00 0.01 0.02 0.03 0.04 0.04 0.04 0.04 0.04 0.04 0.03 0.02 0.02 0.01 0.01 0.02 0.02 0.01 0.01 0.00 0.00 0.00
0.00 0.00 0.00 0.00 0.00 0.00 0.00 0.00 0.00 0.00 0.00 0.00 0.00 0.00 0.00 0.00 0.00 0.00 0.00 0.00 0.00 0.00 0.00 0.00 0.00 0.00 0.00 0.00 0.01 0.02 0.03 0.03 0.04 0.04 0.04 0.04 0.03 0.02 0.02 0.02 0.01 0.01 0.01 0.01 0.01 0.00 0.00 0.00 0.00
0.00 0.00 0.00 0.00 0.00 0.00 0.00 0.00 0.00 0.00 0.00 0.00 0.00 0.00 0.00 0.00 0.00 0.00 0.00 0.00 0.00 0.00 0.00 0.00 0.00 0.00 0.00 0.00 0.00 0.01 0.02 0.03 0.03 0.03 0.03 0.03 0.02 0.02 0.01 0.01 0.01 0.01 0.00 0.00 0.00 0.00 0.00 0.00 0.00
0.00 0.00 0.00 0.00 0.00 0.00 0.00 0.00 0.00 0.00 0.00 0.00 0.00 0.00 0.02 0.00 0.00 0.00 0.00 0.00 0.00 0.00 0.00 0.00 0.00 0.00 0.00 0.00 0.00 0.01 0.02 0.02 0.02 0.02 0.02 0.02 0.02 0.01 0.01 0.01 0.01 0.00 0.00 0.00 0.00 0.00 0.00 0.00 0.00
0.00 0.00 0.00 0.00 0.00 0.00 0.00 0.00 0.00 0.00 0.00 0.00 0.00 0.01 0.04 0.01 0.00 0.00 0.00 0.00 0.00 0.00 0.00 0.00 0.00 0.00 0.00 0.00 0.00 0.01 0.01 0.02 0.02 0.02 0.02 0.01 0.01 0.01 0.01 0.01 0.01 0.00 0.00 0.00 0.00 0.00 0.00 0.00 0.00
0.00 0.00 0.00 0.00 0.00 0.00 0.00 0.00 0.00 0.00 0.00 0.00 0.00 0.00 0.01 0.01 0.00 0.00 0.00 0.00 0.00 0.00 0.00 0.00 0.00 0.00 0.00 0.00 0.00 0.00 0.00 0.01 0.01 0.01 0.01 0.00 0.00 0.00 0.00 0.01 0.00 0.00 0.00 0.00 0.00 0.00 0.00 0.00 0.00
0.00 0.00 0.00 0.00 0.00 0.00 0.00 0.00 0.00 0.00 0.00 0.00 0.00 0.01 0.02 0.01 0.00 0.00 0.00 0.00 0.00 0.00 0.00 0.00 0.00 0.00 0.00 0.00 0.00 0.00 0.00 0.00 0.00 0.00 0.00 0.00 0.00 0.00 0.00 0.00 0.00 0.00 0.00 0.00 0.00 0.00 0.00 0.00 0.00
0.00 0.00 0.00 0.00 0.00 0.00 0.00 0.00 0.00 0.00 0.00 0.00 0.00 0.00 0.02 0.02 0.00 0.00 0.00 0.00 0.00 0.00 0.00 0.00 0.00 0.00 0.00 0.00 0.00 0.00 0.00 0.00 0.00 0.00 0.00 0.00 0.00 0.01 0.01 0.01 0.01 0.00 0.00 0.00 0.00 0.00 0.00 0.00 0.00
0.00 0.00 0.00 0.00 0.00 0.00 0.00 0.00 0.00 0.00 0.00 0.00 0.00 0.00 0.01 0.00 0.00 0.00 0.00 0.00 0.00 0.00 0.00 0.00 0.00 0.00 0.00 0.00 0.00 0.00 0.00 0.00 0.00 0.00 0.00 0.00 0.02 0.04 0.04 0.05 0.02 0.01 0.00 0.00 0.00 0.00 0.00 0.00 0.00
0.00 0.00 0.00 0.00 0.00 0.00 0.00 0.00 0.00 0.00 0.00 0.00 0.00 0.01 0.01 0.00 0.00 0.00 0.00 0.00 0.00 0.00 0.00 0.00 0.00 0.00 0.00 0.00 0.00 0.00 0.00 0.01 0.00 0.01 0.01 0.02 0.03 0.02 0.02 0.04 0.03 0.01 0.01 0.01 0.02 0.01 0.01 0.00 0.01
0.00 0.00 0.00 0.00 0.00 0.00 0.00 0.00 0.00 0.00 0.00 0.01 0.01 0.01 0.01 0.00 0.00 0.00 0.00 0.00 0.00 0.00 0.00 0.00 0.00 0.00 0.00 0.00 0.00 0.00 0.00 0.00 0.00 0.01 0.01 0.03 0.03 0.04 0.03 0.05 0.06 0.05 0.04 0.05 0.06 0.03 0.01 0.01 0.01
0.00 0.00 0.00 0.00 0.00 0.00 0.00 0.00 0.00 0.00 0.00 0.01 0.02 0.02 0.02 0.01 0.00 0.00 0.00 0.00 0.00 0.00 0.00 0.00 0.00 0.00 0.00 0.00 0.00 0.00 0.00 0.01 0.01 0.02 0.02 0.02 0.03 0.04 0.03 0.03 0.04 0.04 0.07 0.08 0.08 0.07 0.02 0.01 0.01
0.00 0.00 0.00 0.00 0.00 0.00 0.00 0.00 0.00 0.00 0.00 0.00 0.00 0.01 0.02 0.02 0.01 0.01 0.01 0.00 0.00 0.00 0.00 0.00 0.00 0.00 0.00 0.00 0.00 0.00 0.00 0.01 0.01 0.02 0.02 0.02 0.02 0.04 0.05 0.05 0.06 0.04 0.04 0.05 0.06 0.07 0.03 0.01 0.01
0.00 0.00 0.00 0.00 0.00 0.00 0.00 0.00 0.00 0.00 0.00 0.00 0.00 0.01 0.01 0.01 0.01 0.01 0.01 0.01 0.00 0.00 0.00 0.00 0.00 0.00 0.00 0.00 0.00 0.00 0.00 0.00 0.01 0.01 0.02 0.02 0.02 0.04 0.05 0.07 0.10 0.09 0.06 0.05 0.04 0.04 0.05 0.03 0.03
0.00 0.00 0.00 0.00 0.00 0.00 0.00 0.00 0.00 0.00 0.00 0.00 0.00 0.01 0.00 0.00 0.00 0.00 0.00 0.00 0.00 0.00 0.00 0.00 0.00 0.00 0.00 0.00 0.00 0.00 0.01 0.01 0.01 0.01 0.02 0.02 0.02 0.04 0.07 0.10 0.11 0.12 0.10 0.09 0.09 0.08 0.07 0.07 0.07
0.00 0.00 0.00 0.00 0.00 0.00 0.00 0.00 0.00 0.00 0.00 0.00 0.00 0.00 0.00 0.00 0.00 0.00 0.01 0.00 0.00 0.00 0.00 0.00 0.00 0.00 0.00 0.00 0.00 0.01 0.01 0.02 0.02 0.02 0.02 0.03 0.03 0.04 0.07 0.09 0.11 0.14 0.14 0.13 0.12 0.12 0.13 0.14 0.13
0.00 0.00 0.00 0.00 0.00 0.00 0.00 0.00 0.00 0.00 0.00 0.00 0.00 0.00 0.00 0.00 0.00 0.00 0.00 0.00 0.00 0.00 0.01 0.01 0.01 0.01 0.01 0.01 0.01 0.01 0.01 0.02 0.02 0.02 0.02 0.04 0.04 0.05 0.08 0.09 0.12 0.13 0.14 0.15 0.15 0.15 0.14 0.15 0.15
0.00 0.00 0.00 0.00 0.00 0.00 0.00 0.00 0.00 0.00 0.00 0.00 0.00 0.00 0.00 0.00 0.00 0.00 0.00 0.00 0.00 0.00 0.01 0.01 0.02 0.03 0.02 0.02 0.02 0.03 0.04 0.05 0.05 0.05 0.05 0.06 0.07 0.08 0.10 0.11 0.12 0.12 0.13 0.15 0.16 0.16 0.16 0.17 0.15
0.00 0.00 0.00 0.00 0.00 0.00 0.00 0.00 0.00 0.00 0.00 0.00 0.00 0.00 0.00 0.00 0.00 0.01 0.02 0.01 0.00 0.00 0.01 0.02 0.03 0.04 0.05 0.05 0.05 0.06 0.10 0.11 0.11 0.11 0.11 0.12 0.12 0.11 0.11 0.10 0.09 0.10 0.12 0.14 0.16 0.17 0.20 0.20 0.17
0.00 0.00 0.00 0.00 0.00 0.00 0.00 0.00 0.00 0.00 0.00 0.00 0.00 0.00 0.00 0.00 0.00 0.01 0.04 0.03 0.00 0.01 0.01 0.02 0.04 0.06 0.07 0.07 0.09 0.10 0.14 0.15 0.13 0.11 0.11 0.11 0.11 0.11 0.11 0.09 0.09 0.09 0.09 0.11 0.14 0.15 0.17 0.18 0.16
0.00 0.00 0.00 0.00 0.00 0.00 0.00 0.00 0.00 0.00 0.00 0.00 0.00 0.00 0.00 0.00 0.00 0.00 0.03 0.05 0.01 0.01 0.02 0.03 0.05 0.06 0.09 0.13 0.14 0.14 0.15 0.16 0.13 0.10 0.09 0.08 0.08 0.07 0.07 0.06 0.06 0.06 0.07 0.08 0.08 0.08 0.09 0.10 0.09
0.00 0.00 0.00 0.00 0.00 0.00 0.00 0.00 0.00 0.00 0.00 0.01 0.00 0.00 0.00 0.00 0.00 0.00 0.00 0.01 0.01 0.02 0.03 0.04 0.07 0.08 0.11 0.15 0.17 0.17 0.17 0.18 0.15 0.11 0.07 0.05 0.04 0.04 0.03 0.03 0.02 0.02 0.03 0.04 0.04 0.03 0.04 0.04 0.03
0.00 0.00 0.00 0.00 0.00 0.00 0.00 0.00 0.00 0.00 0.01 0.01 0.01 0.00 0.00 0.00 0.00 0.00 0.01 0.01 0.02 0.02 0.03 0.05 0.07 0.08 0.11 0.14 0.18 0.19 0.17 0.15 0.13 0.09 0.07 0.06 0.05 0.03 0.02 0.01 0.01 0.01 0.01 0.01 0.02 0.02 0.02 0.02 0.02
0.00 0.00 0.00 0.00 0.00 0.00 0.00 0.00 0.01 0.01 0.01 0.01 0.01 0.01 0.01 0.01 0.01 0.01 0.01 0.01 0.01 0.02 0.02 0.03 0.04 0.05 0.08 0.10 0.14 0.15 0.16 0.15 0.12 0.11 0.10 0.07 0.04 0.02 0.01 0.00 0.00 0.00 0.00 0.01 0.01 0.01 0.01 0.01 0.02
0.00 0.00 0.00 0.00 0.00 0.00 0.00 0.00 0.03 0.01 0.01 0.01 0.00 0.01 0.01 0.01 0.01 0.01 0.01 0.01 0.02 0.02 0.03 0.03 0.04 0.05 0.07 0.09 0.12 0.13 0.14 0.12 0.12 0.11 0.07 0.04 0.02 0.01 0.00 0.00 0.00 0.00 0.00 0.00 0.01 0.01 0.01 0.01 0.01
0.00 0.00 0.00 0.00 0.00 0.00 0.00 0.01 0.04 0.03 0.01 0.01 0.01 0.01 0.01 0.01 0.02 0.02 0.02 0.03 0.03 0.03 0.04 0.04 0.04 0.05 0.07 0.08 0.10 0.10 0.10 0.08 0.06 0.04 0.02 0.01 0.01 0.00 0.00 0.00 0.00 0.00 0.00 0.00 0.00 0.00 0.00 0.00 0.01
0.00 0.00 0.00 0.00 0.00 0.00 0.00 0.01 0.02 0.03 0.02 0.02 0.01 0.01 0.02 0.02 0.02 0.02 0.03 0.03 0.03 0.03 0.03 0.03 0.03 0.04 0.05 0.05 0.05 0.05 0.04 0.04 0.03 0.02 0.01 0.01 0.01 0.00 0.00 0.00 0.00 0.00 0.00 0.00 0.00 0.00 0.00 0.00 0.01
0.00 0.00 0.00 0.00 0.00 0.00 0.00 0.04 0.05 0.08 0.10 0.05 0.02 0.02 0.02 0.02 0.02 0.02 0.02 0.02 0.02 0.02 0.02 0.02 0.02 0.02 0.02 0.02 0.02 0.02 0.02 0.01 0.01 0.01 0.01 0.01 0.00 0.00 0.00 0.00 0.00 0.00 0.00 0.00 0.00 0.00 0.00 0.00 0.00
0.00 0.00 0.00 0.00 0.00 0.00 0.01 0.09 0.09 0.13 0.14 0.08 0.03 0.02 0.02 0.02 0.02 0.02 0.02 0.01 0.01 0.01 0.01 0.01 0.01 0.01 0.01 0.01 0.01 0.01 0.01 0.01 0.01 0.01 0.00 0.00 0.00 0.00 0.00 0.00 0.00 0.00 0.00 0.00 0.00 0.00 0.00 0.00 0.00
MSLP
1009.12 1009.38 1009.67 1009.87 1009.89 1009.69 1009.28 1008.72 1008.12 1007.60 1007.23 1007.08 1007.13 1007.34 1007.64 1007.94 1008.19 1008.37 1008.50 1008.64 1008.85 1009.18 1009.66 1010.27 1010.95 1011.64 1012.28 1012.80 1013.20 1013.49 1013.73 1013.96 1014.26 1014.63 1015.07 1015.55 1016.02 1016.43 1016.74 1016.95 1017.07 1017.13 1017.18 1017.25 1017.35 1017.48 1017.61 1017.71 1017.75
1009.54 1009.94 1010.27 1010.42 1010.30 1009.90 1009.25 1008.45 1007.64 1006.95 1006.48 1006.28 1006.32 1006.56 1006.92 1007.28 1007.61 1007.87 1008.10 1008.33 1008.64 1009.08 1009.65 1010.34 1011.09 1011.82 1012.46 1012.96 1013.34 1013.60 1013.81 1014.04 1014.33 1014.71 1015.17 1015.67 1016.16 1016.57 1016.88 1017.08 1017.19 1017.26 1017.33 1017.43 1017.57 1017.73 1017.89 1018.01 1018.06
1010.04 1010.54 1010.89 1010.97 1010.71 1010.12 1009.27 1008.28 1007.30 1006.50 1005.96 1005.72 1005.78 1006.04 1006.42 1006.83 1007.19 1007.50 1007.77 1008.07 1008.45 1008.96 1009.62 1010.38 1011.19 1011.97 1012.64 1013.16 1013.53 1013.79 1014.00 1014.22 1014.51 1014.89 1015.35 1015.83 1016.30 1016.69 1016.99 1017.18 1017.30 1017.39 1017.49 1017.63 1017.82 1018.04 1018.24 1018.37 1018.41
1010.54 1011.09 1011.41 1011.40 1011.00 1010.26 1009.25 1008.13 1007.06 1006.21 1005.65 1005.43 1005.51 1005.80 1006.20 1006.61 1006.98 1007.29 1007.57 1007.89 1008.31 1008.87 1009.58 1010.41 1011.28 1012.11 1012.83 1013.39 1013.79 1014.08 1014.30 1014.53 1014.82 1015.19 1015.63 1016.09 1016.52 1016.88 1017.15 1017.33 1017.45 1017.57 1017.71 1017.90 1018.14 1018.40 1018.62 1018.76 1018.79
1010.95 1011.47 1011.71 1011.58 1011.06 1010.19 1009.10 1007.92 1006.85 1006.01 1005.51 1005.33 1005.46 1005.78 1006.19 1006.60 1006.94 1007.23 1007.49 1007.80 1008.23 1008.82 1009.56 1010.44 1011.36 1012.24 1013.01 1013.63 1014.08 1014.41 1014.67 1014.93 1015.23 1015.60 1016.01 1016.44 1016.83 1017.15 1017.39 1017.56 1017.69 1017.82 1018.00 1018.22 1018.50 1018.77 1019.00 1019.12 1019.11
1011.18 1011.60 1011.71 1011.45 1010.81 1009.87 1008.74 1007.59 1006.57 1005.83 1005.41 1005.33 1005.52 1005.88 1006.29 1006.69 1007.01 1007.27 1007.50 1007.80 1008.22 1008.80 1009.56 1010.46 1011.41 1012.33 1013.15 1013.82 1014.33 1014.72 1015.04 1015.33 1015.66 1016.02 1016.42 1016.82 1017.18 1017.47 1017.68 1017.83 1017.96 1018.10 1018.28 1018.52 1018.80 1019.07 1019.27 1019.35 1019.28
1011.17 1011.42 1011.37 1010.97 1010.25 1009.27 1008.17 1007.10 1006.20 1005.59 1005.29 1005.31 1005.57 1005.97 1006.40 1006.78 1007.09 1007.32 1007.54 1007.82 1008.22 1008.80 1009.56 1010.45 1011.41 1012.35 1013.20 1013.90 1014.46 1014.91 1015.27 1015.61 1015.97 1016.35 1016.75 1017.13 1017.47 1017.73 1017.92 1018.05 1018.17 1018.30 1018.48 1018.71 1018.96 1019.19 1019.34 1019.37 1019.25
1010.92 1010.98 1010.76 1010.25 1009.46 1008.50 1007.48 1006.53 1005.76 1005.29 1005.12 1005.23 1005.54 1005.96 1006.40 1006.78 1007.07 1007.30 1007.52 1007.80 1008.21 1008.79 1009.53 1010.40 1011.34 1012.26 1013.10 1013.82 1014.41 1014.88 1015.29 1015.68 1016.07 1016.47 1016.88 1017.26 1017.58 1017.83 1018.00 1018.12 1018.22 1018.33 1018.49 1018.69 1018.90 1019.08 1019.18 1019.16 1018.99
1010.47 1010.36 1010.00 1009.40 1008.60 1007.70 1006.78 1005.96 1005.34 1004.99 1004.90 1005.06 1005.39 1005.81 1006.24 1006.61 1006.91 1007.16 1007.41 1007.72 1008.15 1008.72 1009.45 1010.29 1011.18 1012.06 1012.86 1013.55 1014.14 1014.63 1015.06 1015.47 1015.88 1016.31 1016.72 1017.11 1017.43 1017.67 1017.84 1017.95 1018.04 1018.14 1018.27 1018.43 1018.60 1018.74 1018.80 1018.74 1018.56
1009.90 1009.66 1009.21 1008.58 1007.83 1007.01 1006.22 1005.54 1005.03 1004.75 1004.70 1004.85 1005.15 1005.52 1005.91 1006.27 1006.58 1006.87 1007.17 1007.53 1007.99 1008.58 1009.30 1010.10 1010.93 1011.74 1012.49 1013.13 1013.68 1014.16 1014.59 1015.00 1015.43 1015.86 1016.28 1016.67 1017.00 1017.25 1017.43 1017.54 1017.63 1017.72 1017.84 1017.98 1018.12 1018.24 1018.29 1018.23 1018.06
1009.32 1009.00 1008.53 1007.94 1007.27 1006.58 1005.92 1005.35 1004.92 1004.66 1004.58 1004.65 1004.85 1005.13 1005.45 1005.77 1006.09 1006.42 1006.79 1007.21 1007.74 1008.36 1009.07 1009.83 1010.61 1011.35 1012.03 1012.61 1013.12 1013.56 1013.96 1014.36 1014.78 1015.20 1015.63 1016.02 1016.36 1016.62 1016.81 1016.95 1017.05 1017.15 1017.27 1017.41 1017.56 1017.69 1017.76 1017.73 1017.62
1008.81 1008.48 1008.04 1007.53 1006.99 1006.43 1005.90 1005.42 1005.02 1004.72 1004.54 1004.48 1004.54 1004.68 1004.89 1005.16 1005.48 1005.85 1006.28 1006.78 1007.37 1008.03 1008.75 1009.49 1010.23 1010.92 1011.53 1012.06 1012.52 1012.92 1013.30 1013.67 1014.06 1014.46 1014.87 1015.26 1015.60 1015.89 1016.11 1016.27 1016.41 1016.54 1016.69 1016.86 1017.04 1017.21 1017.33 1017.38 1017.35
1008.43 1008.12 1007.76 1007.37 1006.97 1006.55 1006.12 1005.69 1005.28 1004.90 1004.58 1004.35 1004.22 1004.20 1004.30 1004.49 1004.80 1005.19 1005.68 1006.25 1006.89 1007.59 1008.33 1009.08 1009.80 1010.46 1011.05 1011.55 1011.98 1012.36 1012.70 1013.05 1013.41 1013.78 1014.17 1014.55 1014.89 1015.20 1015.45 1015.66 1015.84 1016.03 1016.22 1016.44 1016.67 1016.90 1017.11 1017.25 1017.33
1008.20 1007.94 1007.66 1007.39 1007.11 1006.80 1006.45 1006.04 1005.59 1005.10 1004.64 1004.23 1003.92 1003.74 1003.71 1003.84 1004.11 1004.52 1005.04 1005.65 1006.34 1007.07 1007.83 1008.60 1009.32 1010.00 1010.60 1011.11 1011.56 1011.94 1012.28 1012.60 1012.94 1013.28 1013.64 1014.00 1014.35 1014.68 1014.97 1015.22 1015.46 1015.70 1015.95 1016.22 1016.52 1016.82 1017.11 1017.36 1017.55
1008.09 1007.86 1007.65 1007.47 1007.28 1007.05 1006.74 1006.33 1005.82 1005.24 1004.64 1004.08 1003.63 1003.33 1003.21 1003.28 1003.53 1003.93 1004.46 1005.08 1005.78 1006.52 1007.29 1008.06 1008.82 1009.53 1010.18 1010.76 1011.25 1011.68 1012.04 1012.37 1012.69 1013.02 1013.35 1013.70 1014.05 1014.40 1014.72 1015.02 1015.32 1015.60 1015.90 1016.22 1016.57 1016.94 1017.31 1017.65 1017.94
1008.05 1007.83 1007.65 1007.52 1007.38 1007.18 1006.88 1006.45 1005.89 1005.23 1004.55 1003.91 1003.39 1003.03 1002.88 1002.92 1003.16 1003.54 1004.05 1004.64 1005.30 1006.01 1006.76 1007.53 1008.32 1009.08 1009.81 1010.47 1011.06 1011.56 1011.98 1012.34 1012.67 1012.99 1013.31 1013.65 1014.00 1014.36 1014.72 1015.07 1015.40 1015.72 1016.06 1016.41 1016.79 1017.19 1017.61 1018.02 1018.40
1008.05 1007.80 1007.62 1007.49 1007.35 1007.15 1006.84 1006.38 1005.79 1005.11 1004.41 1003.77 1003.26 1002.93 1002.80 1002.87 1003.11 1003.48 1003.94 1004.46 1005.04 1005.66 1006.35 1007.08 1007.87 1008.68 1009.48 1010.24 1010.94 1011.54 1012.04 1012.46 1012.82 1013.15 1013.47 1013.81 1014.17 1014.55 1014.93 1015.31 1015.67 1016.01 1016.36 1016.71 1017.09 1017.51 1017.95 1018.40 1018.83
1008.04 1007.76 1007.56 1007.40 1007.23 1007.00 1006.66 1006.18 1005.59 1004.93 1004.29 1003.73 1003.33 1003.12 1003.09 1003.24 1003.51 1003.86 1004.25 1004.67 1005.11 1005.60 1006.16 1006.81 1007.55 1008.37 1009.24 1010.09 1010.88 1011.59 1012.19 1012.68 1013.08 1013.44 1013.77 1014.12 1014.50 1014.89 1015.29 1015.69 1016.06 1016.41 1016.74 1017.08 1017.43 1017.82 1018.26 1018.72 1019.18
1008.03 1007.73 1007.50 1007.31 1007.11 1006.85 1006.47 1005.99 1005.43 1004.85 1004.32 1003.93 1003.71 1003.68 1003.82 1004.08 1004.42 1004.76 1005.07 1005.35 1005.62 1005.92 1006.30 1006.81 1007.46 1008.24 1009.12 1010.03 1010.91 1011.70 1012.39 1012.95 1013.40 1013.80 1014.16 1014.53 1014.92 1015.33 1015.75 1016.15 1016.52 1016.86 1017.16 1017.46 1017.77 1018.12 1018.52 1018.98 1019.45
1008.02 1007.74 1007.52 1007.33 1007.11 1006.81 1006.43 1005.96 1005.45 1004.98 1004.62 1004.43 1004.44 1004.64 1004.99 1005.41 1005.82 1006.16 1006.39 1006.52 1006.59 1006.67 1006.83 1007.15 1007.66 1008.36 1009.20 1010.11 1011.04 1011.89 1012.64 1013.27 1013.78 1014.21 1014.60 1014.99 1015.40 1015.82 1016.25 1016.66 1017.02 1017.33 1017.60 1017.84 1018.10 1018.40 1018.76 1019.20 1019.67
1008.02 1007.84 1007.68 1007.52 1007.31 1007.01 1006.63 1006.19 1005.76 1005.42 1005.24 1005.27 1005.53 1005.98 1006.55 1007.13 1007.63 1007.98 1008.13 1008.11 1007.98 1007.83 1007.76 1007.87 1008.20 1008.76 1009.52 1010.40 1011.32 1012.20 1012.99 1013.65 1014.20 1014.67 1015.09 1015.50 1015.92 1016.36 1016.79 1017.20 1017.54 1017.83 1018.06 1018.25 1018.45 1018.70 1019.02 1019.42 1019.89
1008.05 1008.01 1007.97 1007.89 1007.73 1007.46 1007.11 1006.72 1006.37 1006.16 1006.15 1006.39 1006.88 1007.56 1008.32 1009.06 1009.65 1010.01 1010.10 1009.95 1009.65 1009.29 1009.00 1008.90 1009.04 1009.45 1010.10 1010.90 1011.79 1012.66 1013.45 1014.13 1014.70 1015.19 1015.63 1016.05 1016.48 1016.92 1017.35 1017.75 1018.08 1018.34 1018.54 1018.69 1018.84 1019.04 1019.32 1019.70 1020.15
1008.08 1008.23 1008.35 1008.39 1008.31 1008.10 1007.80 1007.47 1007.20 1007.10 1007.24 1007.65 1008.32 1009.18 1010.10 1010.96 1011.63 1012.00 1012.06 1011.83 1011.39 1010.88 1010.42 1010.14 1010.12 1010.39 1010.91 1011.63 1012.44 1013.28 1014.05 1014.73 1015.30 1015.79 1016.23 1016.65 1017.08 1017.52 1017.94 1018.32 1018.63 1018.87 1019.03 1019.16 1019.27 1019.44 1019.68 1020.02 1020.44
1008.07 1008.42 1008.71 1008.88 1008.90 1008.78 1008.54 1008.28 1008.09 1008.08 1008.34 1008.87 1009.67 1010.65 1011.68 1012.62 1013.34 1013.74 1013.78 1013.51 1013.01 1012.41 1011.85 1011.45 1011.32 1011.48 1011.90 1012.53 1013.27 1014.05 1014.78 1015.43 1015.98 1016.46 1016.89 1017.30 1017.71 1018.12 1018.52 1018.88 1019.17 1019.39 1019.53 1019.63 1019.72 1019.85 1020.06 1020.36 1020.75
1007.99 1008.51 1008.94 1009.24 1009.37 1009.33 1009.18 1008.99 1008.88 1008.96 1009.29 1009.91 1010.78 1011.82 1012.90 1013.88 1014.63 1015.04 1015.11 1014.84 1014.35 1013.74 1013.15 1012.72 1012.54 1012.63 1012.99 1013.54 1014.22 1014.93 1015.61 1016.21 1016.73 1017.18 1017.57 1017.96 1018.34 1018.72 1019.09 1019.42 1019.69 1019.88 1020.01 1020.09 1020.16 1020.26 1020.43 1020.69 1021.02
1007.82 1008.44 1008.97 1009.36 1009.58 1009.63 1009.57 1009.48 1009.46 1009.62 1010.01 1010.68 1011.57 1012.62 1013.70 1014.68 1015.44 1015.88 1015.97 1015.76 1015.33 1014.78 1014.25 1013.86 1013.69 1013.78 1014.10 1014.60 1015.22 1015.87 1016.49 1017.04 1017.51 1017.90 1018.26 1018.60 1018.94 1019.28 1019.61 1019.91 1020.15 1020.33 1020.44 1020.50 1020.55 1020.63 1020.75 1020.95 1021.22
1007.56 1008.20 1008.76 1009.20 1009.49 1009.63 1009.68 1009.70 1009.79 1010.04 1010.50 1011.19 1012.09 1013.11 1014.16 1015.10 1015.84 1016.29 1016.44 1016.31 1015.98 1015.55 1015.14 1014.84 1014.75 1014.87 1015.19 1015.67 1016.24 1016.82 1017.38 1017.86 1018.27 1018.61 1018.92 1019.20 1019.50 1019.79 1020.08 1020.35 1020.57 1020.72 1020.82 1020.87 1020.90 1020.94 1021.01 1021.15 1021.33
1007.26 1007.84 1008.38 1008.82 1009.15 1009.38 1009.54 1009.70 1009.93 1010.29 1010.83 1011.56 1012.45 1013.43 1014.41 1015.30 1016.00 1016.46 1016.65 1016.61 1016.41 1016.13 1015.87 1015.71 1015.71 1015.89 1016.24 1016.70 1017.23 1017.76 1018.24 1018.66 1019.00 1019.28 1019.53 1019.77 1020.01 1020.27 1020.52 1020.75 1020.95 1021.09 1021.17 1021.20 1021.21 1021.21 1021.23 1021.29 1021.39
1007.02 1007.49 1007.94 1008.36 1008.72 1009.03 1009.32 1009.64 1010.03 1010.53 1011.17 1011.94 1012.83 1013.76 1014.67 1015.49 1016.13 1016.57 1016.80 1016.85 1016.77 1016.64 1016.54 1016.52 1016.64 1016.89 1017.26 1017.71 1018.19 1018.66 1019.07 1019.41 1019.68 1019.91 1020.10 1020.29 1020.49 1020.71 1020.94 1021.15 1021.32 1021.45 1021.52 1021.54 1021.52 1021.48 1021.45 1021.43 1021.44
1006.94 1007.26 1007.61 1007.98 1008.36 1008.77 1009.20 1009.69 1010.26 1010.92 1011.67 1012.51 1013.39 1014.28 1015.11 1015.84 1016.42 1016.83 1017.07 1017.18 1017.21 1017.21 1017.24 1017.35 1017.56 1017.87 1018.26 1018.69 1019.12 1019.52 1019.86 1020.12 1020.33 1020.49 1020.64 1020.80 1020.97 1021.16 1021.36 1021.56 1021.73 1021.85 1021.91 1021.92 1021.87 1021.80 1021.70 1021.61 1021.53
Thickness
5803 5813 5821 5818 5804 5799 5803 5822 5835 5835 5833 5842 5846 5841 5830 5817 5802 5787 5819 5833 5825 5814 5804 5797 5793 5789 5786 5783 5780 5777 5774 5771 5768 5766 5764 5762 5760 5758 5757 5755 5753 5752 5750 5749 5748 5747 5746 5746 5746
5801 5812 5812 5804 5787 5782 5797 5820 5830 5833 5835 5846 5846 5842 5831 5821 5826 5821 5825 5827 5820 5810 5802 5796 5790 5786 5783 5780 5777 5775 5772 5769 5766 5763 5761 5759 5757 5755 5753 5752 5750 5748 5747 5745 5744 5743 5742 5742 5742
5795 5804 5793 5789 5784 5783 5793 5820 5832 5842 5849 5846 5840 5841 5832 5821 5827 5825 5826 5826 5817 5808 5801 5792 5788 5784 5780 5777 5775 5772 5769 5766 5763 5761 5759 5757 5754 5752 5750 5749 5747 5745 5744 5742 5741 5740 5739 5738 5738
5790 5792 5787 5778 5778 5803 5814 5827 5838 5839 5844 5847 5841 5831 5831 5837 5835 5832 5829 5825 5815 5807 5799 5790 5786 5782 5778 5775 5772 5770 5767 5764 5761 5759 5756 5754 5752 5750 5748 5746 5744 5742 5740 5739 5738 5736 5735 5735 5735
5785 5775 5764 5764 5780 5807 5828 5838 5841 5834 5835 5840 5838 5821 5814 5834 5840 5834 5828 5822 5814 5808 5799 5789 5784 5780 5777 5774 5771 5768 5765 5762 5759 5757 5754 5752 5749 5747 5745 5743 5741 5739 5737 5736 5734 5733 5732 5732 5731
5771 5769 5752 5756 5781 5810 5831 5845 5843 5835 5836 5843 5839 5821 5811 5832 5832 5829 5827 5822 5817 5809 5798 5788 5783 5779 5776 5772 5769 5766 5763 5761 5757 5755 5752 5749 5747 5745 5742 5740 5738 5737 5735 5733 5731 5730 5729 5729 5728
5764 5760 5755 5766 5781 5802 5827 5847 5840 5834 5833 5841 5844 5822 5816 5826 5831 5831 5827 5823 5819 5811 5799 5789 5783 5778 5774 5771 5768 5765 5762 5759 5755 5753 5750 5747 5745 5743 5740 5738 5736 5734 5732 5731 5729 5728 5727 5726 5726
5775 5763 5757 5767 5777 5795 5828 5842 5843 5836 5834 5851 5847 5819 5810 5823 5834 5832 5827 5823 5818 5812 5801 5793 5786 5780 5775 5771 5767 5764 5760 5757 5754 5751 5749 5746 5743 5741 5739 5737 5734 5733 5731 5729 5727 5726 5725 5725 5725
5778 5755 5753 5768 5782 5802 5830 5834 5840 5848 5841 5844 5845 5834 5828 5831 5834 5827 5820 5818 5814 5810 5804 5798 5791 5784 5779 5774 5768 5763 5760 5756 5753 5750 5748 5746 5744 5742 5740 5738 5735 5732 5730 5728 5726 5725 5724 5724 5724
5771 5754 5763 5786 5802 5814 5829 5832 5834 5835 5830 5832 5835 5834 5834 5833 5829 5821 5815 5812 5810 5807 5806 5803 5796 5789 5784 5780 5770 5765 5762 5757 5755 5752 5749 5747 5746 5745 5743 5739 5735 5732 5730 5728 5725 5724 5723 5722 5723
5772 5765 5779 5796 5811 5817 5819 5825 5832 5824 5819 5829 5829 5826 5827 5828 5826 5822 5819 5816 5813 5811 5810 5808 5801 5794 5790 5784 5774 5771 5767 5761 5757 5756 5751 5749 5748 5746 5743 5739 5734 5731 5728 5727 5725 5722 5722 5722 5723
5773 5778 5787 5795 5809 5809 5809 5817 5820 5823 5827 5842 5843 5837 5830 5827 5826 5825 5822 5819 5817 5813 5811 5811 5805 5798 5794 5789 5781 5777 5772 5766 5763 5758 5754 5751 5748 5747 5744 5739 5735 5732 5730 5727 5726 5723 5723 5723 5723
5772 5777 5789 5797 5801 5804 5806 5808 5812 5820 5836 5843 5841 5832 5830 5825 5828 5830 5830 5825 5820 5815 5812 5812 5808 5799 5795 5790 5785 5781 5776 5771 5767 5762 5756 5752 5749 5745 5743 5741 5736 5733 5731 5727 5724 5721 5721 5720 5719
5779 5782 5786 5793 5795 5798 5794 5801 5807 5817 5834 5836 5834 5827 5827 5826 5827 5827 5826 5823 5822 5817 5814 5813 5808 5800 5795 5789 5785 5782 5777 5772 5769 5763 5757 5753 5750 5747 5743 5739 5735 5732 5729 5725 5720 5717 5714 5713 5711
5780 5774 5778 5787 5791 5794 5792 5786 5801 5821 5832 5829 5828 5828 5830 5828 5831 5829 5825 5823 5824 5820 5816 5812 5807 5801 5794 5788 5783 5781 5777 5772 5768 5764 5759 5754 5749 5745 5740 5736 5732 5729 5725 5721 5716 5711 5708 5705 5704
5766 5759 5755 5779 5788 5793 5783 5774 5807 5826 5827 5824 5826 5829 5830 5834 5836 5836 5831 5826 5826 5822 5817 5812 5808 5800 5793 5788 5782 5779 5776 5772 5767 5763 5758 5751 5746 5741 5736 5732 5728 5723 5718 5713 5708 5702 5698 5694 5692
5748 5743 5752 5773 5793 5792 5783 5779 5809 5830 5827 5822 5825 5828 5829 5833 5834 5833 5831 5827 5825 5822 5817 5811 5807 5800 5793 5787 5781 5777 5774 5769 5765 5759 5754 5748 5743 5738 5733 5727 5722 5717 5712 5707 5702 5695 5690 5685 5682
5740 5749 5759 5772 5794 5789 5782 5786 5807 5825 5826 5822 5823 5825 5824 5823 5824 5830 5828 5826 5824 5821 5816 5809 5804 5798 5792 5785 5778 5772 5769 5764 5760 5754 5749 5744 5738 5733 5728 5721 5716 5712 5707 5700 5694 5687 5682 5678 5674
5752 5759 5765 5782 5801 5787 5780 5785 5799 5816 5817 5817 5819 5820 5818 5816 5819 5823 5822 5822 5820 5816 5811 5805 5799 5794 5788 5780 5772 5765 5760 5756 5752 5747 5741 5736 5732 5726 5721 5715 5710 5705 5699 5693 5688 5681 5675 5670 5667
5744 5748 5763 5783 5796 5783 5775 5780 5796 5808 5811 5812 5812 5812 5809 5808 5807 5808 5809 5809 5810 5808 5805 5800 5795 5790 5784 5777 5770 5763 5756 5749 5744 5738 5733 5728 5724 5718 5713 5709 5703 5698 5692 5686 5681 5676 5670 5665 5661
5737 5741 5754 5766 5778 5776 5765 5762 5779 5799 5808 5808 5805 5800 5798 5794 5790 5790 5792 5794 5797 5798 5798 5796 5791 5785 5778 5772 5763 5755 5747 5740 5733 5728 5723 5718 5714 5710 5705 5700 5696 5690 5685 5680 5675 5670 5664 5658 5654
5724 5745 5752 5757 5755 5752 5754 5739 5768 5785 5790 5790 5785 5782 5778 5777 5777 5776 5777 5778 5782 5786 5789 5788 5784 5778 5771 5764 5755 5746 5737 5729 5724 5719 5713 5708 5704 5699 5695 5690 5686 5681 5676 5671 5667 5662 5658 5652 5646
5730 5747 5746 5746 5743 5741 5751 5742 5762 5784 5774 5768 5765 5761 5761 5761 5760 5759 5760 5763 5767 5771 5772 5772 5768 5763 5759 5753 5746 5737 5729 5723 5716 5709 5702 5697 5692 5687 5683 5678 5674 5669 5665 5660 5655 5651 5646 5642 5637
5735 5735 5737 5739 5735 5717 5737 5739 5751 5769 5769 5753 5745 5743 5744 5743 5743 5743 5744 5746 5748 5751 5753 5752 5749 5744 5742 5738 5731 5725 5718 5711 5704 5697 5691 5685 5679 5674 5669 5665 5661 5656 5651 5647 5642 5638 5633 5629 5624
5723 5711 5700 5701 5705 5716 5747 5742 5745 5755 5755 5743 5733 5728 5728 5727 5725 5724 5725 5726 5728 5730 5731 5732 5730 5726 5724 5720 5715 5710 5704 5698 5692 5685 5679 5673 5666 5660 5655 5651 5647 5642 5638 5633 5629 5625 5620 5615 5610
5714 5711 5696 5696 5708 5728 5751 5745 5737 5744 5740 5733 5725 5719 5713 5710 5707 5706 5706 5708 5709 5710 5711 5712 5710 5707 5705 5702 5698 5694 5689 5683 5677 5671 5665 5659 5652 5646 5641 5637 5633 5628 5624 5620 5615 5611 5606 5601 5596
5710 5710 5722 5714 5718 5720 5738 5731 5719 5727 5722 5717 5711 5705 5697 5693 5691 5690 5690 5691 5692 5693 5693 5694 5693 5690 5687 5684 5681 5676 5672 5667 5661 5655 5650 5643 5637 5632 5627 5623 5618 5614 5609 5605 5601 5596 5591 5586 5582
5723 5721 5711 5702 5694 5701 5725 5721 5715 5712 5708 5703 5696 5689 5682 5679 5677 5676 5676 5676 5677 5677 5677 5677 5676 5673 5671 5668 5665 5660 5655 5650 5645 5640 5633 5628 5622 5617 5612 5607 5603 5598 5593 5589 5585 5580 5576 5571 5566
5711 5712 5711 5711 5712 5703 5703 5698 5722 5710 5698 5688 5679 5673 5668 5666 5665 5664 5663 5663 5664 5664 5663 5661 5660 5657 5654 5650 5647 5643 5638 5633 5628 5622 5616 5611 5606 5601 5596 5591 5586 5582 5577 5572 5567 5563 5559 5555 5550
5722 5717 5712 5695 5699 5710 5704 5685 5712 5698 5687 5675 5665 5659 5655 5653 5653 5652 5651 5651 5650 5649 5648 5646 5644 5641 5637 5634 5630 5625 5620 5616 5611 5605 5600 5594 5589 5585 5579 5574 5570 5565 5560 5555 5550 5545 5541 5537 5532